Location: Rooftop Observatory
(39.0308°N, 87.1711°W)
Time: 18:48:04
(UTC-05:00)

Daily predictions for brighter satellites

Satellite Brightness Start Highest point End
(mag) Time Altitude Azimuth Time Altitude Azimuth Time Altitude Azimuth
Lacrosse 5 4.0 19:51:59 10° NNW 19:54:53 15° NNE 19:57:47 10° ENE
FengYun 1-2 T 4.3 19:49:50 10° SSE 19:55:26 71° ENE 20:01:02 10° N
CZ-2D R/B 3.9 19:52:18 10° SE 19:55:51 36° ENE 19:59:27 10° N
Cosmos 1934 Rocket 4.2 19:50:07 10° SSE 19:56:00 51° E 20:01:58 10° NNE
Resurs 01 Rocket 1.9 19:51:46 10° S 19:56:10 76° WSW 20:00:37 10° NNW
ATLAS CENTAUR R/B 4.0 19:53:12 10° WSW 19:57:38 31° NW 20:02:02 10° NNE
Hubble Space Telescope 2.8 19:56:27 10° SW 19:59:12 17° S 20:01:56 10° SE
HJ-1C 4.1 19:56:38 10° S 19:59:51 57° W 20:03:06 10° NNW
Cosmos 1777 Rocket 4.0 19:58:08 10° NNW 20:03:24 70° ENE 20:08:38 10° SSE
Delta 2 Rocket 4.3 20:03:47 10° W 20:09:23 58° S 20:14:11 12° ESE
Cosmos 1346 Rocket 3.1 20:07:06 10° N 20:10:54 45° ENE 20:14:44 10° SSE
Cosmos 1544 Rocket 3.5 20:07:26 10° S 20:11:47 77° E 20:16:12 10° N
Cosmos 1536 3.7 20:08:19 10° SSW 20:12:13 53° W 20:16:11 10° N
Tiangong 1 2.0 20:10:01 10° W 20:13:01 45° N 20:16:00 10° ENE
Cosmos 2227 Rocket 2.6 20:07:36 10° N 20:13:02 44° ENE 20:18:21 10° SE
USA 186 2.1 20:10:46 10° SSE 20:13:44 41° ENE 20:16:34 10° N
FENGYUN 3A 3.6 20:09:02 10° SSE 20:14:20 71° ENE 20:19:41 10° N
OTV 4 0.4 20:11:28 10° W 20:14:25 68° S 20:16:45 15° ESE
NOSS 7 (D) 4.4 20:11:11 10° SSW 20:14:41 62° ESE 20:18:00 10° NE
Cosmos 2208 Rocket 4.0 20:11:48 10° S 20:17:03 69° ESE 20:22:25 10° NNE
Cosmos 1656 4.4 20:14:31 10° SSE 20:19:21 30° ESE 20:24:10 10° NE
NOSS 3-4 (A) 3.9 20:13:37 10° NNW 20:20:40 73° NE 20:28:01 10° SE
Meteor 1-5 Rocket 4.1 20:15:28 10° S 20:20:46 81° E 20:26:13 10° NNE
NOSS 3-4 (C) 3.9 20:13:44 10° NNW 20:20:47 73° NE 20:28:06 11° SE
BREEZE-M TANK 4.4 20:04:04 10° WNW 20:20:59 58° N 20:24:54 11° E
Cosmos 2082 3.9 20:21:00 10° NNW 20:26:31 53° ENE 20:31:16 14° SE
CZ-4 DEB 3.8 20:26:40 19° ESE 20:28:07 27° ENE 20:30:51 10° NNE
Cosmos 2297 Rocket 2.7 20:23:19 10° N 20:28:41 43° ENE 20:32:48 16° SE
Cosmos 1570 Rocket 4.2 20:28:56 10° SSW 20:34:14 76° WNW 20:39:32 10° NNE
Envisat 3.8 20:34:13 18° ESE 20:37:15 33° ENE 20:41:46 10° N
Cosmos 1605 Rocket 4.0 20:34:33 10° S 20:40:54 83° E 20:47:13 10° N
Cosmos 1515 4.3 20:40:00 10° N 20:43:35 36° ENE 20:44:57 27° ESE
OAO 2 Rocket 3.7 20:41:07 10° WSW 20:45:55 46° SSE 20:48:32 25° ESE
Cosmos 2100 Rocket 4.5 20:42:26 11° SSE 20:47:52 39° E 20:53:35 10° NNE
Cosmos 1743 4.1 20:53:16 23° ENE 20:53:16 23° ENE 20:55:50 10° NE
Iridium 4 Rocket 3.3 20:48:04 10° N 20:53:12 67° E 20:56:49 17° SSE
YAOGAN 11 4.1 20:50:15 19° SSE 20:53:24 70° ENE 20:57:52 10° N
Cosmos 1975 2.8 20:52:57 10° S 20:57:03 89° E 21:01:11 10° N
DELTA 2 R/B (1) 3.5 20:51:47 10° W 20:57:22 89° SSW 21:00:25 28° E
Cosmos 1066 Rocket 4.4 20:54:58 10° N 21:00:30 53° ENE 21:03:26 27° SE
Cosmos 1697 Rocket 2.7 21:00:36 10° S 21:06:06 57° ESE 21:11:38 10° NNE
H-2A R/B 2.4 21:06:31 39° E 21:07:07 42° ENE 21:11:01 10° N
Lacrosse 5 rocket 0.9 21:05:09 10° NW 21:08:50 75° NE 21:09:24 59° ESE
ALOS 4.2 21:06:16 10° SSW 21:10:16 28° W 21:14:18 10° NW
ERS-1 Rocket 2.9 21:07:44 23° SSE 21:10:56 88° WSW 21:15:59 10° NNW
Cosmos 1626 Rocket 3.9 21:08:21 10° NNW 21:12:44 66° W 21:15:36 20° S
deb Chang Zheng 4 3.6 21:12:38 10° NNE 21:17:04 61° ESE 21:18:17 43° SSE
Cosmos 1898 Rocket 3.5 21:12:06 10° NNW 21:17:24 68° ENE 21:19:08 42° SE
Cosmos 1461 3.7 21:16:04 10° NW 21:19:53 41° WSW 21:21:13 30° SSW
Cosmos 1602 Rocket 4.3 21:16:47 10° NNW 21:21:08 52° W 21:24:04 19° SSW
Cosmos 1763 Rocket 4.2 21:24:18 34° ENE 21:24:18 34° ENE 21:27:52 10° NE
Nimbus 7 Rocket 4.4 21:17:10 10° NNE 21:23:14 68° ESE 21:27:55 17° S
Cosmos 1459 Rocket 3.8 21:21:24 21° S 21:25:34 74° E 21:31:40 10° N
Cosmos 1980 Rocket 2.3 21:26:51 43° SSE 21:28:12 52° ESE 21:33:44 10° NNE
Cosmos 1939 Rocket 3.3 21:27:38 40° SSW 21:28:54 63° W 21:33:03 10° NNW
ARGOS 3.8 21:30:52 37° ENE 21:31:10 37° ENE 21:36:04 10° N
Cosmos 468 Rocket 4.1 21:30:24 10° SSW 21:35:31 74° WNW 21:40:40 10° NNE
Lacrosse 5 2.1 21:33:57 10° NW 21:38:55 52° NE 21:39:26 50° ENE
SPOT 5 2.8 21:41:21 63° SSE 21:42:12 87° E 21:47:07 10° NNW
Cosmos 2084 3.4 21:38:32 10° NW 21:42:21 77° NNW 21:42:21 77° NNW
Cosmos 2058 Rocket 4.3 21:44:37 30° NE 21:44:37 30° NE 21:47:11 10° NNE
Cosmos 1814 Rocket 4.1 21:38:22 10° SSW 21:43:42 76° WNW 21:49:02 10° NNE
Cosmos 841 Rocket 4.0 21:45:04 43° ENE 21:45:04 43° ENE 21:48:53 10° NNE
USA 215 4.1 21:44:53 30° ENE 21:47:20 40° NNE 21:53:20 10° NW
Meteor 1-21 4.1 21:43:14 10° N 21:49:01 78° E 21:49:52 65° SE
Tiangong 1 3.4 21:46:49 10° WNW 21:48:23 25° NW 21:48:23 25° NW
MetOp-B 4.0 21:49:20 67° SSE 21:50:05 88° ENE 21:55:29 10° NNW
OTV 4 3.5 21:47:58 10° W 21:48:16 12° WSW 21:48:16 12° WSW
Cosmos 1802 Rocket 4.0 21:47:44 28° SSW 21:51:24 81° W 21:57:52 10° N
Cosmos 1606 Rocket 3.8 21:54:42 65° N 21:54:42 65° N 21:58:32 10° N
Cosmos 2227 Rocket 4.1 21:52:18 10° NW 21:56:45 24° WSW 22:00:12 14° SW
SL-08 R/B 4.3 21:55:42 60° SSE 21:56:51 78° E 22:03:03 10° N
Cosmos 2263 Rocket 4.0 21:54:49 10° N 21:58:15 17° NE 21:58:15 17° NE
RESURS DK-1 3.1 21:55:05 10° NNW 21:58:17 52° NNW 21:58:17 52° NNW
Cosmos 2322 Rocket 4.1 22:03:22 17° NE 22:03:22 17° NE 22:04:47 10° NE
Cosmos 2360 4.3 22:06:40 64° NE 22:06:40 64° NE 22:11:34 10° NNE
CZ-3C R/B 4.2 21:51:01 10° W 22:06:57 21° SW 22:09:52 18° SSW
Meteor 2-9 Rocket 4.2 22:10:24 67° NNE 22:10:24 67° NNE 22:15:08 10° NNE
Cosmos 2016 Rocket 4.1 22:07:40 43° SSW 22:09:44 69° W 22:15:54 10° N
Cosmos 1340 4.4 22:07:31 10° NNW 22:09:50 32° NW 22:09:50 32° NW
SL-19 R/B 4.1 22:06:23 10° NNE 22:11:54 79° WNW 22:12:00 79° W
Cosmos 2297 Rocket 3.9 22:07:54 10° NW 22:12:26 25° WSW 22:14:38 20° SW
Cosmos 2227 4.2 22:10:00 10° NNW 22:15:22 77° N 22:15:22 77° N
BREEZE-M DEB (TANK) 4.3 21:58:14 10° WNW 22:16:56 55° NNE 22:18:46 42° ENE
H-2A R/B 3.0 22:19:52 36° NNE 22:19:52 36° NNE 22:23:04 10° N
Terra 3.3 22:23:37 28° NNE 22:23:37 28° NNE 22:26:09 10° N
Cosmos 1937 Rocket 4.4 22:18:48 10° NNW 22:23:44 41° WSW 22:23:51 41° WSW
ASTEX 1 4.4 22:20:44 10° N 22:25:27 42° WNW 22:25:57 41° W
Cosmos 2098 Rocket 4.3 22:26:49 52° SW 22:28:28 68° W 22:34:35 10° N
SPOT 1/Viking Rocket 4.4 22:37:52 46° WNW 22:37:52 46° WNW 22:42:16 10° NNW
Tsikada Rocket 4.2 22:34:08 10° NNW 22:40:26 68° W 22:40:26 68° W
BREEZE-M DEB (TANK) 4.0 22:40:02 10° W 22:48:16 47° NNW 22:48:16 47° NNW
SL-16 R/B 3.6 22:57:20 31° NNE 22:57:20 31° NNE 23:00:14 10° NNE
Cosmos 1980 Rocket 4.3 23:08:26 11° WSW 23:12:32 23° NW 23:16:59 10° N
Cosmos 2360 Rocket 4.5 23:17:04 15° NE 23:17:04 15° NE 23:18:04 10° NNE
Lacrosse 5 4.4 23:17:31 10° WNW 23:18:37 15° WNW 23:18:37 15° WNW
USA 215 4.1 23:32:14 43° WNW 23:32:14 43° WNW 23:36:36 10° NW
Cosmos 2263 Rocket 3.9 23:37:24 10° NNW 23:39:56 28° NNW 23:39:56 28° NNW
Cosmos 2322 Rocket 4.0 23:45:09 27° NNW 23:45:09 27° NNW 23:48:42 10° N
